Regional Weather Roundup
Issued by NWS

Home | Current Version | Previous Version | Text Only | Print | Product List | Glossary On
Versions: 1 2 3 4 5 6 7 8 9 10 11 12 13 14 15 16 17 18 19 20 21 22 23 24 25 26 27 28 29 30 31 32 33 34 35 36 37 38 39 40 41 42 43 44 45 46 47 48 49 50
000
ASUS44 KLUB 310510
RWRTX
WEST TEXAS WEATHER ROUNDUP
NATIONAL WEATHER SERVICE LUBBOCK TX
1100 PM CST FRI JAN 30 2015

NOTE: "FAIR" INDICATES FEW OR NO CLOUDS BELOW 12,000 FEET WITH NO
SIGNIFICANT WEATHER AND/OR OBSTRUCTIONS TO VISIBILITY.

TXZ004-006>008-010-012-014-016-OKZ002-310600-
TEXAS PANHANDLE/OKLAHOMA PANHANDLE

CITY           SKY/WX    TMP DP  RH WIND       PRES   REMARKS
AMARILLO       MIX PCPN  34  32  92 SE9       30.21S WCI  27
BORGER         LGT RAIN  37  31  78 S5        30.22F WCI  33
CANADIAN       CLOUDY    40  33  75 S5        30.24F
DALHART        LGT RAIN  36  33  89 S13       30.18S FOG     WCI  27
DUMAS          DRIZZLE   33  32  96 SE8       30.19F WCI  26
GUYMON         LGT RAIN  36  34  92 S10       30.19F WCI  28
HEREFORD       LGT RAIN  36  34  94 S10       30.20S WCI  28
PAMPA          DRIZZLE   34  31  87 SE12      30.21F WCI  26
PERRYTON         N/A     37  32  83 S13       30.21F WCI  29
$$

TXZ026-029-035-045-048-310600-
SOUTHERN PANHANDLE/SOUTH PLAINS/ROLLING PLAINS

CITY           SKY/WX    TMP DP  RH WIND       PRES   REMARKS
CHILDRESS      CLOUDY    42  29  59 SE7       30.26F
SEMINOLE       LGT RAIN  39  36  87 E6        30.19F
LUBBOCK        CLOUDY    39  32  76 SE9       30.20F WCI  33
PLAINVIEW      LGT RAIN  37  33  82 E7        30.20F WCI  32
SNYDER         CLOUDY   N/A N/A N/A E9        30.23R
$$

TXZ052-054-060>062-072-078-127-140-154-169-310600-
PERMIAN BASIN/CONCHO VALLEY/BIG COUNTRY/EDWARDS PLATEAU

CITY           SKY/WX    TMP DP  RH WIND       PRES   REMARKS
ABILENE        CLOUDY    46  33  60 SE8       30.24F
BIG SPRING     CLOUDY    46  31  54 E9        30.23R
BRADY          MOCLDY    46  36  66 E7        30.24S
BROWNWOOD      CLOUDY    46  34  61 E7        30.27F
JUNCTION       CLOUDY    50  38  63 E8        30.24S
MIDLAND        CLOUDY    45  35  68 SE10      30.19S
ODESSA         CLOUDY    45  34  65 E13       30.18F
SAN ANGELO     CLOUDY    49  36  61 E7        30.20F
SONORA         CLOUDY    50  37  62 SE9       30.24R
SWEETWATER     CLOUDY    45  32  60 E7        30.24F
WINK           LGT RAIN  45  39  79 E7        30.13F
$$

TXZ055-058-074-075-080-082-310600-
FAR WEST/SOUTHWEST MOUNTAINS/TRANS PECOS

CITY           SKY/WX    TMP DP  RH WIND       PRES   REMARKS
ALPINE         CLOUDY    42  40  95 NW5       30.16F
DRYDEN           N/A     51  43  74 E10       30.16F
EL PASO        LGT RAIN  42  40  92 NE5       30.03F
FORT STOCKTON  LGT RAIN  46  42  86 SE10      30.14F
GUADALUPE PASS MIX PCPN  32  32 100 NE23      30.12R FOG     WCI  19
MARFA          CLOUDY    43  39  87 NE6       30.12S
PECOS          LGT RAIN  45  43  93 E3        30.15S
PRESIDIO       CLOUDY    51  44  79 NE16G22   30.04F
$$

TXZ014-016-019-021>030-083-310600
TEXAS TECH WEST TEXAS MESONET/TEXAS PANHANDLE/NORTHERN SOUTH PLAINS

CITY           SKY/WX    TMP DP  RH WIND       PRES   REMARKS
ABERNATHY 5ENE   N/A     36  33  89 E7        30.22R WCI  30
AMARILLO 9NNE    N/A     34  32  91 SE9       30.21F WCI  27
AMARILLO 7SSE    N/A     34  31  91 SE10      30.21F WCI  26
AMHERST 1NE      N/A     35  34  94 E7        30.20S WCI  30
BOOTLEG 11WNW    N/A     33  31  91 S12       30.18F WCI  24
CANADIAN 6E      N/A     38  32  78 SE6       30.22F WCI  33
CAPROCK CYN SP   N/A     39  28  66 SE7       30.25S WCI  34
CLARENDON 2WSW   N/A     37  29  71 SE9       30.23F WCI  31
CLAUDE 12SW      N/A     34  29  80 SE12      30.21S WCI  26
DIMMITT 2NE    LGT RAIN  33  32  96 SE14      30.19S WCI  23
FLOYDADA 2NNE    N/A     37  29  74 E7        30.22S WCI  31
FRIONA 2NE     LGT RAIN  34  32  93 S13       30.19S WCI  25
GOODLETT 3W      N/A     41  31  65 E5        30.25F
HART 3N          N/A     34  33  96 SE9       30.20F WCI  26
HEREFORD 2NW   LGT RAIN  34  32  92 SE10      30.19S WCI  26
MCLEAN 1E        N/A     37  27  68 SE10      30.22F WCI  30
MEMPHIS 1NE      N/A     41  29  60 E5        30.25F
MULESHOE 2SSW    N/A     35  34  96 SE7       30.19S WCI  29
OLTON 6S       LGT RAIN  35  32  88 E8        30.20F WCI  29
PALO DURO SP     N/A     35  30  83 SE8       30.23S WCI  28
PAMPA 2E         N/A     34  31  87 SE10      30.21F WCI  26
PLAINVIEW 1S   LGT RAIN  35  32  88 E7        30.21F WCI  30
SILVERTON 7ESE   N/A     37  28  69 SE9       30.23R WCI  30
TULIA 2ENE       N/A     35  31  86 SE9       30.22R WCI  27
TURKEY 2WSW      N/A     40  29  64 E9        30.24S WCI  34
UMBARGER 3NNE    N/A     33  31  91 SE15      30.20F WCI  23
$$

TXZ033>036-039>041-045>048-310600
TEXAS TECH WEST TEXAS MESONET/SOUTH PLAINS

CITY           SKY/WX    TMP DP  RH WIND       PRES   REMARKS
AIKEN 3WSW       N/A     36  32  86 SE6       30.23S WCI  31
ANDREWS 2NE    LGT RAIN  42  36  78 E9        30.18F
BROWNFIELD 2S    N/A     39  32  75 E9        30.20S WCI  33
DENVR CTY 7WNW LGT RAIN  37  34  90 E7        30.17F WCI  31
GAIL 2ESE        N/A     44  31  61 E8        30.21S
LAMESA 2SE       N/A     42  31  65 E12       30.21R
LEVELLAND 4S   LGT RAIN  37  34  87 E7        30.19S WCI  32
LUBBOCK 3WNW     N/A     38  31  74 E8        30.21S WCI  33
MORTON 1ENE      N/A     36  34  94 E8        30.19S WCI  29
ODONNELL 1N      N/A     41  31  66 E12       30.20S
PLAINS 3N      LGT RAIN  37  35  93 E8        30.18S WCI  31
RALLS 1SE        N/A     38  30  73 E9        30.23S WCI  32
REESE CENTER     N/A     37  33  84 E10       30.20F WCI  30
SEAGRAVES 1SW    N/A     39  34  84 E6        30.19S WCI  34
SEMINOLE 2NNE    N/A     39  35  86 E8        30.18F WCI  33
SLATON 2NE       N/A     39  30  69 E9        30.21F WCI  33
SNYDER 3E        N/A     44  32  63 E9        30.21S
SUNDOWN 8SW      N/A     37  35  93 E6        30.19R WCI  32
TAHOKA 3NNE      N/A     39  32  75 E10       30.19F WCI  32
WOLFFORTH 6SSW   N/A     38  37  94 E10       30.20F WCI  31
$$

TXZ031-032-036>038-042>044-310600-
TEXAS TECH WEST TEXAS MESONET/ROLLING PLAINS

CITY           SKY/WX    TMP DP  RH WIND       PRES   REMARKS
ASPERMONT 3NE    N/A     43  34  70 NE3       30.24F
FLUVANNA 3WNW    N/A     42  31  63 E9        30.21S
GRAHAM 5SSW      N/A     42  30  63 E12       30.21S
GUTHRIE 10WSW    N/A     41  30  66 NE6       30.24S
HASKELL 1NW      N/A     45  33  63 E3        30.25S
JAYTON 1SSE      N/A     42  32  65 NE5       30.24R
KNOX CITY 3NW    N/A     44  32  63 E5        30.26F
LK A HENRY 1NW   N/A     43  32  64 NE3       30.23R
NORTHFIELD 1S    N/A     41  30  65 E5        30.26R
ODELL 4ENE       N/A     43  29  56 E7        30.27F
PADUCAH 10SW     N/A     41  30  66 E6        30.25S
POST 1NE         N/A     42  31  65 E7        30.23S
RRING SPRGS 3N   N/A     39  30  70 E7        30.24R WCI  34
SEYMOUR 3NW      N/A     45  32  61 E8        30.25F
SPUR 1W          N/A     40  29  64 NE6       30.24R
WEINERT 2NNE     N/A     44  33  65 E5        30.26R
WHITE RVR 6NE    N/A     40  29  65 E8        30.22S WCI  34
$$

TXZ052-054-060>062-072-078-127-140-154-169-310600-
TEXAS TECH WEST TEXAS MESONET/PERMIAN BASIN/
CONCHO VALLEY/BIG COUNTRY/EDWARDS PLATEAU

CITY           SKY/WX    TMP DP  RH WIND       PRES   REMARKS
COYANOSA 2N      N/A     45  44  95 NE5       30.15F
JUNCTION 1SSW    N/A     50  38  65 E6        30.24F
MERTZON 3NNE     N/A     46  35  64 CALM      30.22R
SAN ANGELO 7NW   N/A     46  33  59 E10       30.22R
STRLNG CT 4WSW   N/A     45  32  60 E7        30.22R
ST LAWRNCE 5SW   N/A     44  32  62 E13       30.19S
SWEETWATR 11SW   N/A     43  32  64 E9        30.21S
WALL 1E          N/A     47  35  63 E12       30.21F
$$

TXZ055-058-074-075-080-082-310600-
TEXAS TECH WEST TEXAS MESONET/FAR WEST/SOUTHWEST MOUNTAINS/TRANS PECOS

CITY           SKY/WX    TMP DP  RH WIND       PRES   REMARKS
PRSMN GAP BBNP   N/A     45  44  97 NE20      30.11F
GUADLPE MTN NP   N/A     33  32  99 CALM      30.13S
$$



USA.gov is the U.S. government's official web portal to all federal, state and local government web resources and services.